Wind_Speed
6 6 5 4 3 2 2 2 2 3 3 4 5 5 6 6 7 8 7 7 7 7 7 7 8 8 8 8 7 8 8 8 7 8 10 10 9 9 9 9 9 10 10
7 6 5 5 4 3 2 1 2 3 3 4 4 5 5 7 8 8 7 6 6 6 7 7 7 7 7 7 7 8 8 8 8 8 9 9 9 9 9 9 8 8 9
7 6 6 6 5 4 3 3 2 3 3 2 3 4 5 6 7 7 7 6 6 6 6 7 6 6 6 6 6 7 8 8 8 9 9 9 9 9 9 9 8 8 8
7 8 7 7 6 5 5 4 3 2 2 2 2 4 5 5 6 7 7 6 5 5 5 6 6 6 6 6 6 7 8 8 8 9 9 9 9 9 8 8 7 7 8
8 8 8 7 6 6 5 4 3 3 3 2 2 4 5 5 6 6 6 5 5 5 5 5 5 6 6 6 6 6 8 9 9 9 10 9 9 9 9 8 8 8 8
8 8 8 7 7 6 5 5 5 4 4 4 3 4 4 4 5 5 5 5 4 4 4 4 5 6 6 5 5 6 7 8 8 9 9 10 9 9 9 9 8 9 9
9 9 8 8 8 6 5 4 5 5 6 5 5 5 5 5 4 4 4 5 4 4 3 3 4 4 5 5 5 6 7 8 8 8 8 9 8 8 9 9 9 9 9
9 9 9 9 8 7 6 5 5 5 6 6 7 7 6 4 4 4 3 3 3 3 4 4 4 4 4 4 5 5 6 6 6 6 7 7 8 8 8 10 10 9 9
9 9 9 9 8 7 7 6 6 7 7 7 6 6 5 5 4 4 3 2 2 2 2 3 4 4 4 3 4 4 4 5 6 6 6 7 6 7 7 8 9 9 9
9 9 9 9 8 8 8 7 6 7 6 6 6 5 5 5 5 4 3 2 1 1 1 2 3 2 2 3 3 4 4 5 6 6 6 7 6 6 6 6 6 7 9
9 9 9 9 9 9 8 8 7 7 6 6 6 5 5 5 5 5 4 3 2 1 1 1 1 1 2 2 3 3 3 4 5 5 5 5 6 5 5 5 6 6 7
9 9 9 9 9 9 8 8 8 8 7 7 6 5 5 5 5 4 4 3 3 3 2 1 0 1 2 3 3 3 3 4 4 4 3 3 4 4 5 5 5 6 6
9 9 9 9 9 9 9 9 8 8 7 7 7 6 5 5 5 5 4 4 4 4 3 3 0 1 2 2 3 3 3 3 3 4 3 2 3 4 4 4 5 6 5
9 9 9 9 9 10 9 8 8 8 7 8 7 7 6 5 5 5 5 4 4 4 4 3 2 2 2 2 2 2 3 4 3 3 2 2 3 3 3 4 4 5 5
8 9 9 9 8 9 9 8 8 8 8 8 8 7 6 5 4 4 4 4 4 4 4 4 3 1 1 1 2 3 3 3 3 3 3 2 2 2 3 4 5 5 5
9 8 8 9 9 8 8 8 8 8 7 7 7 7 7 6 6 5 6 5 5 4 5 4 3 2 2 2 3 3 2 2 2 1 2 2 2 3 3 4 4 5 6
8 8 8 8 8 8 8 8 8 8 8 8 7 6 6 7 6 6 6 5 4 4 4 3 3 3 3 3 3 2 2 2 2 2 1 2 3 4 4 5 6 6 7
7 7 7 8 8 7 7 8 8 8 8 8 8 7 6 6 6 5 5 4 4 4 3 3 3 3 3 3 3 2 2 3 3 3 2 2 3 4 5 6 6 7 7
7 6 6 7 7 7 7 8 7 7 7 7 7 7 7 6 6 4 4 4 3 3 3 3 2 2 2 3 3 4 4 3 3 3 3 3 4 5 6 6 7 7 7
6 5 5 6 6 6 6 7 7 6 6 7 7 7 6 6 6 6 5 4 4 3 3 3 3 3 3 4 4 4 4 3 3 3 4 4 5 6 7 7 8 8 8
5 4 5 6 6 5 6 7 7 7 6 6 6 6 7 7 7 7 6 5 4 4 4 4 4 3 4 4 4 5 5 5 4 5 5 5 6 7 7 7 8 8 9
5 5 5 5 5 6 6 7 7 7 6 6 5 6 6 7 7 7 6 5 4 5 5 5 5 4 4 4 5 6 6 6 6 6 7 7 7 8 7 8 9 9 10
5 5 5 5 5 5 6 6 7 6 6 6 6 6 6 6 6 7 6 6 6 5 5 5 5 5 5 5 6 6 6 6 7 7 8 8 9 8 8 9 10 11 11
5 5 5 5 6 6 6 6 7 7 6 6 6 7 6 6 6 6 6 7 7 6 6 6 6 6 6 7 7 7 8 8 8 8 9 9 10 10 10 10 11 12 12
6 5 5 6 6 6 7 7 7 7 7 7 7 8 8 8 8 7 7 8 8 8 7 7 7 7 8 8 8 9 9 10 11 11 11 11 11 12 12 12 13 13 14
6 6 6 6 6 7 7 7 7 8 8 8 9 9 9 9 8 8 8 8 9 9 9 8 8 9 9 9 9 10 11 12 13 13 13 13 13 14 14 14 14 15 15
Wind_Direction
53 45 51 50 57 76 100 127 152 170 179 184 196 202 202 197 190 189 190 190 192 194 202 206 209 216 216 222 229 236 242 250 260 248 234 233 234 239 241 243 242 241 242
50 47 49 50 60 85 99 120 160 171 172 185 197 199 194 192 185 189 192 197 200 204 211 215 212 221 221 232 238 237 238 247 245 240 237 234 235 242 250 249 252 250 246
49 52 52 50 59 73 89 119 133 151 166 180 201 196 190 188 191 191 194 203 211 212 209 208 206 215 219 229 235 239 243 239 236 237 236 237 239 243 248 253 252 247 245
51 51 52 50 54 68 73 90 105 123 139 170 189 188 181 185 195 195 196 204 210 215 212 210 215 221 223 229 237 241 242 244 238 238 237 241 243 245 246 248 244 238 235
51 49 52 55 56 63 65 69 85 98 113 124 150 169 171 179 187 190 192 198 204 207 205 211 222 226 226 232 237 244 243 243 238 234 239 246 247 248 246 242 240 237 240
55 52 54 60 60 61 65 71 73 74 81 87 109 136 150 163 172 178 184 195 198 196 198 212 226 228 232 241 240 244 237 232 236 241 244 249 253 247 244 243 241 240 239
56 53 55 61 61 63 68 70 71 73 78 84 95 114 130 142 149 165 183 194 199 203 210 220 232 241 241 237 235 237 230 231 246 252 255 251 250 242 240 243 242 240 239
57 54 56 60 60 63 63 64 76 81 85 92 103 109 120 134 144 154 177 189 205 223 233 234 235 238 239 235 231 235 240 250 255 255 259 256 249 249 250 247 242 239 242
56 54 58 57 57 56 54 64 70 78 88 96 99 96 107 116 115 120 135 146 165 195 210 227 239 257 246 241 234 248 248 253 263 262 260 256 253 253 253 243 239 240 246
55 54 55 56 55 54 55 62 70 78 88 94 93 93 99 102 101 98 104 115 113 168 205 235 243 253 250 239 238 252 254 263 269 266 264 257 252 252 251 247 242 250 251
54 54 53 55 56 60 64 67 73 79 82 86 88 90 95 101 101 100 94 90 74 77 110 244 241 257 269 260 249 251 272 275 265 269 268 262 255 250 252 252 250 252 251
54 56 56 55 55 60 63 65 69 71 74 77 76 82 88 89 99 100 89 78 63 58 52 42 186 247 266 261 251 247 275 273 262 270 267 263 248 247 256 254 260 263 263
55 59 59 58 57 62 64 64 68 65 64 71 68 63 74 89 100 101 93 79 63 54 48 38 31 264 277 268 259 264 278 284 277 283 285 269 243 243 251 263 270 270 271
61 62 59 61 61 61 61 65 66 59 63 67 63 61 68 82 95 89 80 69 57 50 44 32 13 332 279 255 259 285 292 288 280 285 282 278 259 250 253 264 276 276 271
61 65 62 62 62 59 59 58 63 59 57 62 64 59 60 68 83 78 68 70 61 61 46 37 25 350 296 282 305 309 309 280 273 291 280 284 271 263 267 272 275 272 275
58 62 63 62 60 57 54 58 59 60 59 59 62 68 71 73 78 83 76 75 65 55 48 49 47 33 13 348 331 320 325 335 301 315 281 292 295 284 282 283 283 284 279
58 61 63 59 57 58 58 59 59 59 57 55 55 63 72 70 64 62 67 67 61 52 41 38 34 28 10 352 339 340 343 354 358 346 342 312 292 283 279 283 286 285 282
53 57 61 56 57 58 59 57 57 54 51 47 46 50 53 54 54 51 50 46 46 45 43 35 27 17 3 3 2 1 8 3 8 5 334 310 297 291 287 286 289 287 283
44 51 50 50 53 53 52 50 50 51 49 46 44 44 42 40 43 41 38 39 42 33 31 28 24 22 3 359 2 10 13 7 358 345 324 304 296 293 292 290 286 285 283
32 38 36 36 39 39 38 38 40 43 44 44 40 35 35 33 31 31 31 30 34 29 15 7 10 8 6 360 1 2 360 355 341 330 318 308 301 297 295 292 288 284 282
25 29 28 22 24 30 32 32 31 34 37 34 31 29 28 26 26 24 22 19 20 14 5 0 357 349 352 353 349 345 342 340 330 317 314 313 309 309 308 300 291 289 288
26 34 31 28 26 27 27 26 26 27 27 22 17 14 16 18 18 18 17 14 10 5 357 347 344 345 343 338 339 335 332 330 322 315 312 312 312 311 311 309 302 296 292
18 26 26 20 19 17 16 17 16 17 14 6 2 357 357 0 2 3 4 2 0 356 349 345 339 335 325 320 325 323 322 324 320 316 312 312 312 309 306 307 303 299 295
360 7 10 8 5 360 357 359 1 2 2 359 351 345 343 341 339 344 346 344 340 341 340 335 330 324 317 315 315 314 311 311 310 308 305 304 304 302 301 301 300 299 295
342 346 349 349 350 347 347 346 344 346 347 343 337 341 343 336 334 333 333 336 336 336 330 325 319 316 313 312 313 312 309 307 306 305 304 301 299 299 298 297 296 295 295
328 329 331 334 335 335 334 334 333 333 333 334 330 331 331 330 328 328 328 327 327 325 321 318 312 311 312 311 311 309 307 307 304 301 299 299 298 298 298 297 294 293 295
Height
5882 5880 5879 5878 5877 5876 5876 5875 5875 5875 5875 5875 5874 5874 5875 5875 5876 5877 5877 5877 5878 5879 5879 5880 5880 5880 5880 5881 5881 5881 5881 5881 5879 5878 5879 5882 5882 5883 5883 5883 5883 5884 5885
5882 5881 5880 5879 5878 5876 5876 5875 5875 5875 5874 5874 5873 5873 5873 5874 5874 5876 5877 5877 5878 5878 5879 5879 5878 5878 5879 5880 5880 5880 5880 5880 5880 5879 5880 5881 5882 5882 5882 5882 5882 5883 5884
5883 5881 5880 5879 5878 5877 5876 5875 5875 5874 5874 5873 5873 5872 5873 5873 5874 5875 5876 5877 5877 5878 5878 5878 5878 5878 5878 5879 5879 5879 5879 5879 5879 5879 5879 5880 5880 5881 5881 5881 5881 5882 5883
5884 5882 5881 5880 5878 5877 5877 5876 5875 5875 5874 5873 5872 5871 5872 5873 5874 5874 5875 5876 5877 5877 5877 5877 5877 5877 5878 5878 5878 5878 5878 5878 5878 5878 5878 5878 5879 5879 5880 5880 5880 5881 5881
5884 5883 5882 5880 5879 5878 5877 5876 5875 5874 5873 5872 5871 5870 5871 5872 5873 5874 5875 5875 5876 5876 5877 5877 5877 5877 5877 5877 5877 5877 5877 5877 5877 5877 5877 5877 5878 5878 5879 5879 5879 5880 5880
5885 5884 5882 5881 5880 5878 5878 5877 5876 5874 5873 5871 5870 5870 5870 5871 5873 5873 5874 5875 5875 5876 5876 5876 5876 5876 5876 5876 5876 5876 5876 5876 5876 5876 5876 5876 5876 5877 5878 5878 5878 5878 5879
5886 5885 5883 5882 5881 5879 5878 5877 5875 5874 5873 5872 5870 5870 5871 5872 5872 5873 5873 5874 5875 5875 5875 5875 5875 5875 5875 5875 5875 5875 5874 5874 5875 5875 5874 5874 5875 5876 5876 5877 5877 5877 5878
5887 5886 5884 5883 5882 5880 5879 5877 5876 5875 5874 5873 5871 5871 5872 5872 5872 5873 5874 5874 5874 5874 5874 5874 5874 5874 5874 5874 5874 5874 5874 5874 5874 5873 5874 5874 5874 5875 5875 5875 5875 5876 5877
5888 5887 5885 5884 5883 5881 5880 5878 5877 5876 5875 5874 5873 5873 5873 5873 5873 5874 5874 5874 5874 5874 5873 5873 5873 5873 5873 5873 5873 5873 5873 5873 5873 5873 5873 5873 5873 5873 5873 5874 5874 5874 5875
5890 5888 5887 5885 5883 5882 5880 5879 5878 5877 5876 5875 5875 5874 5874 5874 5874 5874 5874 5874 5874 5873 5873 5872 5872 5872 5872 5872 5873 5873 5873 5873 5872 5872 5871 5872 5872 5872 5872 5873 5873 5873 5873
5891 5889 5888 5886 5885 5883 5882 5880 5879 5878 5877 5876 5876 5875 5875 5875 5875 5875 5874 5874 5873 5873 5872 5871 5871 5871 5871 5872 5872 5872 5872 5872 5871 5870 5870 5870 5871 5871 5872 5872 5872 5872 5872
5892 5891 5889 5888 5886 5885 5884 5882 5880 5880 5878 5877 5877 5876 5875 5875 5875 5875 5874 5874 5874 5873 5871 5870 5870 5871 5871 5871 5871 5872 5872 5871 5871 5871 5870 5870 5870 5871 5871 5871 5871 5871 5871
5893 5892 5891 5889 5888 5886 5885 5884 5882 5881 5880 5879 5878 5877 5876 5875 5875 5875 5875 5875 5874 5873 5872 5871 5870 5871 5871 5871 5871 5871 5871 5871 5871 5870 5870 5870 5870 5870 5870 5870 5870 5870 5870
5895 5893 5892 5891 5890 5888 5887 5885 5884 5883 5881 5880 5879 5878 5876 5876 5875 5875 5875 5875 5875 5874 5873 5873 5872 5872 5871 5871 5871 5871 5871 5871 5870 5870 5870 5869 5869 5869 5869 5869 5869 5869 5869
5896 5895 5894 5892 5891 5889 5888 5887 5886 5885 5883 5882 5881 5879 5877 5876 5876 5876 5876 5876 5876 5875 5874 5874 5873 5873 5872 5872 5872 5871 5871 5870 5870 5870 5869 5869 5869 5869 5869 5868 5868 5868 5868
5898 5896 5895 5894 5892 5891 5889 5888 5887 5886 5885 5884 5882 5881 5879 5878 5877 5877 5877 5877 5877 5876 5876 5875 5874 5874 5874 5873 5872 5872 5871 5870 5870 5869 5869 5868 5868 5868 5868 5868 5867 5867 5867
5899 5898 5896 5895 5894 5892 5891 5890 5889 5888 5886 5885 5884 5882 5881 5880 5879 5879 5878 5878 5878 5877 5876 5876 5875 5874 5874 5873 5872 5872 5871 5870 5869 5869 5868 5868 5868 5868 5868 5867 5866 5866 5865
5900 5899 5898 5896 5895 5894 5892 5891 5890 5889 5888 5886 5885 5884 5882 5881 5881 5880 5880 5879 5878 5878 5877 5876 5875 5875 5874 5873 5872 5872 5871 5870 5869 5869 5868 5868 5867 5867 5866 5866 5865 5865 5864
5902 5900 5899 5897 5896 5895 5893 5892 5891 5890 5889 5887 5886 5885 5884 5883 5882 5881 5880 5880 5879 5878 5877 5876 5876 5875 5874 5873 5872 5872 5871 5870 5869 5869 5868 5868 5867 5866 5865 5864 5864 5863 5863
5903 5901 5900 5899 5897 5896 5895 5893 5892 5891 5890 5888 5887 5886 5885 5884 5882 5881 5881 5880 5879 5879 5878 5877 5876 5875 5874 5873 5872 5871 5871 5870 5869 5868 5868 5867 5866 5865 5864 5863 5862 5861 5861
5903 5902 5901 5899 5898 5897 5895 5894 5893 5892 5891 5890 5888 5887 5886 5885 5883 5882 5881 5880 5879 5879 5878 5876 5875 5875 5874 5873 5872 5871 5870 5869 5868 5868 5867 5866 5865 5864 5863 5861 5860 5859 5858
5904 5903 5901 5900 5899 5897 5896 5895 5893 5892 5891 5890 5889 5888 5887 5885 5884 5883 5882 5881 5880 5879 5877 5876 5875 5874 5873 5873 5872 5871 5870 5869 5867 5866 5865 5864 5863 5862 5861 5860 5858 5857 5856
5904 5903 5902 5901 5899 5898 5897 5895 5894 5893 5892 5891 5890 5888 5887 5886 5884 5883 5882 5880 5879 5878 5877 5876 5875 5874 5873 5872 5871 5870 5869 5868 5867 5866 5864 5863 5862 5860 5859 5858 5856 5855 5853
5905 5904 5902 5901 5900 5898 5897 5896 5894 5893 5892 5891 5890 5888 5887 5886 5884 5883 5882 5880 5879 5877 5876 5875 5874 5873 5872 5871 5870 5869 5868 5867 5865 5864 5863 5861 5860 5858 5857 5855 5854 5852 5851
5905 5904 5902 5901 5900 5899 5897 5896 5895 5893 5892 5891 5889 5888 5887 5885 5884 5882 5881 5879 5878 5877 5875 5874 5873 5872 5871 5870 5869 5867 5866 5865 5863 5862 5860 5859 5857 5856 5854 5852 5851 5849 5848
5905 5903 5902 5901 5900 5898 5897 5896 5894 5893 5891 5890 5889 5887 5886 5884 5883 5881 5880 5878 5877 5875 5874 5873 5871 5870 5869 5868 5866 5865 5864 5862 5860 5859 5857 5856 5854 5852 5851 5849 5847 5846 5844